User: anonymous   Login
Location: Baix
(44.7118°N, 4.7648°E)
Time: 17:29:30
(UTC+00:00)
Language:

Cosmos 968 Rocket - Orbit

View from above orbital plane
View from above orbital plane
View from above satellite
View from above satellite

Ground track
Ground track

The orbit data is extracted from the following two-line orbital elements,

1 10521U 77119B   20298.32555666  .00000078  00000-0  32620-4 0  9995
2 10521  74.0271 159.4202 0021922 234.8480 125.0622 14.40796697248690
Epoch (UTC): 24 October 2020 07:48:48
Eccentricity: 0.0021922
inclination: 74.0271°
perigee height: 740 km
apogee height: 771 km
right ascension of ascending node: 159.4202°
argument of perigee: 234.8480°
revolutions per day: 14.40796697
mean anomaly at epoch: 125.0622°
orbit number at epoch: 24869

The dashed part of the orbit path shows where the satellite is in the earth's shadow,  

DLR